FW1364 Weather Reports


time (UTC)temp
F
wind
direction
speed
knots
gust
knots
rain 1hr
in
rain 24hr
in
rain mn
in
humidity
%
barometer
mb
20260507231550 58 217 0.0 0.0 0.00 0.00 0.00 43 1011.4
20260507230052 59 326 0.0 0.9 0.00 0.00 0.00 43 1011.3
20260507224554 59 221 0.0 1.7 0.00 0.00 0.00 43 1011.2
20260507223049 59 244 0.0 0.0 0.00 0.00 0.00 44 1011.0
20260507221548 59 303 0.0 0.0 0.00 0.00 0.00 43 1010.8
20260507220048 60 290 0.0 0.9 0.00 0.00 0.00 45 1010.8
20260507214551 61 342 0.0 0.9 0.00 0.00 0.00 42 1010.6
20260507213047 61 217 0.0 0.0 0.00 0.00 0.00 45 1010.6
20260507211546 61 259 0.0 0.9 0.00 0.00 0.00 43 1010.6
20260507210047 60 218 0.0 0.9 0.00 0.00 0.00 45 1010.4
20260507204550 61 238 0.0 1.7 0.00 0.00 0.00 42 1010.5
20260507203045 61 232 0.0 0.9 0.00 0.00 0.00 39 1010.3
20260507201552 62 244 0.0 2.6 0.00 0.00 0.00 43 1010.6
20260507200040 60 233 0.0 1.7 0.00 0.00 0.00 42 1010.6
20260507194540 62 234 0.0 0.9 0.00 0.00 0.00 45 1010.8
20260507193038 62 234 0.0 0.0 0.00 0.00 0.00 48 1011.0
20260507191538 62 283 0.0 0.9 0.00 0.00 0.00 46 1011.0
20260507190037 62 242 0.0 0.9 0.00 0.00 0.00 44 1010.9
20260507184535 63 209 0.0 0.9 0.00 0.00 0.00 47 1011.1
20260507183033 62 190 0.0 1.7 0.00 0.00 0.00 47 1011.2
20260507181532 62 205 0.0 1.7 0.00 0.00 0.00 46 1011.3
20260507180036 62 271 0.0 0.9 0.00 0.00 0.00 48 1011.4
20260507174539 62 247 0.0 2.6 0.00 0.00 0.00 51 1011.6
20260507173030 61 150 0.0 1.7 0.00 0.00 0.00 44 1011.7
20260507171524 61 200 0.0 1.7 0.00 0.00 0.00 50 1012.1
20260507170038 61 292 0.0 0.9 0.00 0.00 0.00 50 1012.3
20260507164521 61 232 0.0 3.5 0.00 0.00 0.00 48 1012.3
20260507163017 59 260 0.0 0.0 0.00 0.00 0.00 48 1012.4
20260507161515 59 244 0.0 2.6 0.00 0.00 0.00 47 1012.5
20260507160015 60 238 0.0 0.0 0.00 0.01 0.00 46 1012.7
20260507154510 57 229 0.0 0.9 0.00 0.01 0.00 51 1012.7
20260507153009 58 318 0.0 0.0 0.00 0.01 0.00 50 1012.8
20260507151507 56 229 0.0 0.9 0.00 0.01 0.00 53 1013.1
20260507150003 58 355 0.0 0.9 0.00 0.02 0.00 56 1013.3
20260507144559 56 144 0.0 0.9 0.00 0.02 0.00 56 1013.4
20260507143058 56 241 0.0 0.9 0.00 0.02 0.00 54 1013.6
20260507141555 55 253 0.0 0.0 0.00 0.02 0.00 57 1014.0
20260507140053 55 252 0.0 0.0 0.00 0.02 0.00 59 1014.3
20260507134552 54 254 0.0 0.0 0.00 0.04 0.00 63 1014.4
20260507133045 54 260 0.0 0.0 0.00 0.04 0.00 60 1014.5
20260507131553 53 209 0.0 0.0 0.00 0.04 0.00 64 1014.6
20260507130035 52 98 0.0 0.0 0.00 0.04 0.00 71 1014.5
20260507124534 51 32 0.0 0.0 0.00 0.05 0.00 82 1014.5
20260507123027 48 17 0.0 0.0 0.00 0.05 0.00 90 1014.7
20260507121524 45 17 0.0 0.0 0.00 0.05 0.00 93 1014.7
20260507120036 43 17 0.0 0.0 0.00 0.08 0.00 93 1014.6
20260507114521 42 17 0.0 0.0 0.00 0.08 0.00 93 1014.6
20260507113015 40 16 0.0 0.0 0.00 0.08 0.00 93 1014.5
20260507111511 39 16 0.0 0.0 0.00 0.08 0.00 93 1014.3
20260507110008 37 16 0.0 0.0 0.00 0.18 0.00 92 1013.9
20260507104510 36 16 0.0 0.0 0.00 0.18 0.00 92 1013.9
20260507103006 36 16 0.0 0.0 0.00 0.18 0.00 91 1013.9
20260507101503 37 16 0.0 0.0 0.00 0.18 0.00 91 1013.8
20260507100001 37 16 0.0 0.0 0.00 0.25 0.00 91 1013.6
20260507094600 37 16 0.0 0.0 0.00 0.25 0.00 91 1013.6
20260507093100 38 16 0.0 0.0 0.00 0.25 0.00 90 1013.4
20260507091559 38 16 0.0 0.0 0.00 0.25 0.00 90 1013.6
20260507090057 39 16 0.0 0.0 0.00 0.25 0.00 90 1013.7
20260507084555 39 16 0.0 0.0 0.00 0.32 0.00 90 1013.9
20260507083050 40 16 0.0 0.0 0.00 0.32 0.00 89 1013.8
20260507081550 41 16 0.0 0.0 0.00 0.32 0.00 89 1013.7
20260507080049 41 16 0.0 0.0 0.00 0.32 0.00 89 1013.5
20260507074558 42 16 0.0 0.0 0.00 0.35 0.00 88 1013.6
20260507073040 43 16 0.0 0.0 0.00 0.35 0.00 88 1013.6
20260507071536 44 16 0.0 0.0 0.00 0.35 0.00 87 1013.4
20260507070033 45 16 0.0 0.0 0.00 0.35 0.00 87 1013.4
20260507064530 46 16 0.0 0.0 0.00 0.40 0.00 87 1013.4
20260507063029 47 16 0.0 0.0 0.00 0.40 0.00 87 1013.4
20260507061525 47 16 0.0 0.0 0.00 0.40 0.00 87 1013.4
20260507060025 47 16 0.0 0.0 0.00 0.42 0.00 87 1013.5
20260507054523 48 16 0.0 0.0 0.00 0.42 0.00 87 1013.9
20260507053021 47 16 0.0 0.0 0.00 0.42 0.00 87 1013.9
20260507051520 48 16 0.0 0.0 0.00 0.42 0.00 87 1014.0
20260507050025 48 16 0.0 0.0 0.00 0.44 0.00 87 1014.0
20260507044516 48 16 0.0 0.0 0.00 0.44 0.00 87 1013.8
20260507043015 49 16 0.0 0.0 0.00 0.44 0.00 86 1013.9
20260507041512 49 16 0.0 0.0 0.00 0.44 0.00 86 1013.6
20260507040008 49 16 0.0 0.0 0.00 0.44 0.44 86 1013.7
20260507034507 49 16 0.0 0.0 0.00 0.44 0.44 85 1013.6
20260507033014 49 16 0.0 0.0 0.00 0.44 0.44 85 1013.8
20260507031506 50 16 0.0 0.0 0.00 0.44 0.44 85 1013.7
20260507030004 50 16 0.0 0.0 0.00 0.44 0.44 84 1013.3
20260507024502 50 16 0.0 0.0 0.00 0.44 0.44 84 1013.2
20260507023106 50 16 0.0 0.0 0.00 0.44 0.44 84 1013.2
20260507021602 51 16 0.0 0.0 0.00 0.44 0.44 83 1013.1
20260507020100 51 16 0.0 0.0 0.00 0.44 0.44 83 1013.1
20260507014604 51 16 0.0 0.0 0.00 0.44 0.44 86 1012.6
20260507013055 51 16 0.0 0.0 0.00 0.44 0.44 87 1012.5
20260507011554 52 16 0.0 0.9 0.00 0.44 0.44 88 1012.3
20260507010054 52 17 0.0 0.0 0.00 0.44 0.44 87 1012.0
20260507004554 53 17 0.0 0.0 0.00 0.44 0.44 87 1012.0
20260507003053 53 17 0.0 0.0 0.00 0.44 0.44 86 1012.3
20260507001559 53 17 0.0 0.0 0.00 0.44 0.44 85 1012.4
20260507000052 54 315 0.0 0.0 0.00 0.44 0.44 84 1012.8
20260506234549 54 315 0.0 0.0 0.00 0.44 0.44 82 1012.2
20260506233107 54 315 0.0 0.0 0.00 0.44 0.44 81 1012.1